datetime,flow
1976-02-01,14.0
1976-02-02,14.0
1976-02-03,15.0
1976-02-04,9.9
1976-02-05,10.0
1976-02-06,13.0
1976-02-07,21.0
1976-02-08,21.0
1976-02-09,21.0
1976-02-10,20.0
1976-02-11,18.0
1976-02-12,14.0
1976-02-13,15.0
1976-02-14,20.0
1976-02-15,20.0
1976-02-16,18.0
1976-02-17,16.0
1976-02-18,14.0
1976-02-19,15.0
1976-02-20,13.0
1976-02-21,11.0
1976-02-22,16.0
1976-02-23,20.0
1976-02-24,17.0
1976-02-25,17.0
1976-02-26,12.0
1976-02-27,11.0
1976-02-28,11.0
1976-02-29,13.0
1976-03-01,13.0
1976-03-02,14.0
1976-03-03,13.0
1976-03-04,8.4
1976-03-05,15.0
1976-03-06,22.0
1976-03-07,16.0
1976-03-08,14.0
1976-03-09,13.0
1976-03-10,12.0
1976-03-11,11.0
1976-03-12,9.4
1976-03-13,10.0
1976-03-14,10.0
1976-03-15,9.7
1976-03-16,8.8
1976-03-17,9.4
1976-03-18,9.1
1976-03-19,9.2
1976-03-20,8.6
1976-03-21,9.5
1976-03-22,10.0
1976-03-23,9.2
1976-03-24,7.9
1976-03-25,7.9
1976-03-26,8.2
1976-03-27,15.0
1976-03-28,12.0
1976-03-29,12.0
1976-03-30,14.0
1976-03-31,12.0
1976-04-01,13.0
1976-04-02,13.0
1976-04-03,14.0
1976-04-04,14.0
1976-04-05,14.0
1976-04-06,17.0
1976-04-07,14.0
1976-04-08,14.0
1976-04-09,13.0
1976-04-10,11.0
1976-04-11,11.0
1976-04-12,11.0
1976-04-13,13.0
1976-04-14,15.0
1976-04-15,16.0
1976-04-16,15.0
1976-04-17,76.0
1976-04-18,35.0
1976-04-19,19.0
1976-04-20,16.0
1976-04-21,16.0
1976-04-22,13.0
1976-04-23,12.0
1976-04-24,12.0
1976-04-25,12.0
1976-04-26,12.0
1976-04-27,12.0
1976-04-28,12.0
1976-04-29,28.0
1976-04-30,25.0
1976-05-01,22.0
1976-05-02,15.0
1976-05-03,14.0
1976-05-04,11.0
1976-05-05,11.0
1976-05-06,12.0
1976-05-07,12.0
1976-05-08,12.0
1976-05-09,14.0
1976-05-10,13.0
1976-05-11,14.0
1976-05-12,16.0
1976-05-13,16.0
1976-05-14,16.0
1976-05-15,13.0
1976-05-16,24.0
1976-05-17,18.0
1976-05-18,17.0
1976-05-19,19.0
1976-05-20,28.0
1976-05-21,39.0
1976-05-22,66.0
1976-05-23,68.0
1976-05-24,56.0
1976-05-25,47.0
1976-05-26,40.0
1976-05-27,21.0
1976-05-28,19.0
1976-05-29,19.0
1976-05-30,18.0
1976-05-31,18.0
1976-06-01,17.0
1976-06-02,16.0
1976-06-03,16.0
1976-06-04,13.0
1976-06-05,14.0
1976-06-06,69.0
1976-06-07,48.0
1976-06-08,12.0
1976-06-09,9.2
1976-06-10,12.0
1976-06-11,11.0
1976-06-12,12.0
1976-06-13,12.0
1976-06-14,14.0
1976-06-15,13.0
1976-06-16,12.0
1976-06-17,20.0
1976-06-18,28.0
1976-06-19,17.0
1976-06-20,14.0
1976-06-21,8.9
1976-06-22,9.8
1976-06-23,14.0
1976-06-24,17.0
1976-06-25,16.0
1976-06-26,14.0
1976-06-27,10.0
1976-06-28,7.0
1976-06-29,6.1
1976-06-30,7.0
1976-07-01,7.0
1976-07-02,7.0
1976-07-03,7.5
1976-07-04,7.0
1976-07-05,7.0
1976-07-06,7.5
1976-07-07,7.5
1976-07-08,7.5
1976-07-09,7.0
1976-07-10,7.0
1976-07-11,7.0
1976-07-12,7.0
1976-07-13,6.5
1976-07-14,6.5
1976-07-15,6.5
1976-07-16,6.5
1976-07-17,6.5
1976-07-18,6.5
1976-07-19,10.0
1976-07-20,50.0
1976-07-21,35.0
1976-07-22,40.0
1976-07-23,15.0
1976-07-24,11.0
1976-07-25,11.0
1976-07-26,11.0
1976-07-27,11.0
1976-07-28,30.0
1976-07-29,20.0
1976-07-30,15.0
1976-07-31,15.0
1976-08-01,300.0
1976-08-02,540.0
1976-08-03,384.0
1976-08-04,179.0
1976-08-05,94.0
1976-08-06,62.0
1976-08-07,43.0
1976-08-08,36.0
1976-08-09,28.0
1976-08-10,16.0
1976-08-11,13.0
1976-08-12,14.0
1976-08-13,14.0
1976-08-14,10.0
1976-08-15,10.0
1976-08-16,11.0
1976-08-17,10.0
1976-08-18,9.2
1976-08-19,24.0
1976-08-20,16.0
1976-08-21,10.0
1976-08-22,13.0
1976-08-23,10.0
1976-08-24,19.0
1976-08-25,23.0
1976-08-26,11.0
1976-08-27,9.3
1976-08-28,8.2
1976-08-29,8.9
1976-08-30,10.0
1976-08-31,9.4
1976-09-01,10.0
1976-09-02,10.0
1976-09-03,9.7
1976-09-04,9.0
1976-09-05,8.6
1976-09-06,8.6
1976-09-07,12.0
1976-09-08,17.0
1976-09-09,17.0
1976-09-10,9.7
1976-09-11,8.7
1976-09-12,8.3
1976-09-13,8.1
1976-09-14,8.7
1976-09-15,9.5
1976-09-16,9.2
1976-09-17,33.0
1976-09-18,39.0
1976-09-19,23.0
1976-09-20,23.0
1976-09-21,22.0
1976-09-22,21.0
1976-09-23,21.0
1976-09-24,22.0
1976-09-25,35.0
1976-09-26,121.0
1976-09-27,140.0
1976-09-28,57.0
1976-09-29,43.0
1976-09-30,33.0
1976-10-01,17.0
1976-10-02,16.0
1976-10-03,15.0
1976-10-04,38.0
1976-10-05,17.0
1976-10-06,18.0
1976-10-07,18.0
1976-10-08,18.0
1976-10-09,16.0
1976-10-10,14.0
1976-10-11,16.0
1976-10-12,18.0
1976-10-13,16.0
1976-10-14,15.0
1976-10-15,15.0
1976-10-16,15.0
1976-10-17,15.0
1976-10-18,15.0
1976-10-19,15.0
1976-10-20,15.0
1976-10-21,17.0
1976-10-22,14.0
1976-10-23,14.0
1976-10-24,14.0
1976-10-25,14.0
1976-10-26,32.0
1976-10-27,33.0
1976-10-28,27.0
1976-10-29,36.0
1976-10-30,37.0
1976-10-31,30.0
1976-11-01,34.0
1976-11-02,34.0
1976-11-03,34.0
1976-11-04,35.0
1976-11-05,27.0
1976-11-06,26.0
1976-11-07,28.0
1976-11-08,25.0
1976-11-09,24.0
1976-11-10,24.0
1976-11-11,23.0
1976-11-12,20.0
1976-11-13,19.0
1976-11-14,25.0
1976-11-15,22.0
1976-11-16,25.0
1976-11-17,21.0
1976-11-18,18.0
1976-11-19,22.0
1976-11-20,21.0
1976-11-21,20.0
1976-11-22,19.0
1976-11-23,21.0
1976-11-24,23.0
1976-11-25,23.0
1976-11-26,21.0
1976-11-27,15.0
1976-11-28,15.0
1976-11-29,15.0
1976-11-30,17.0
1976-12-01,19.0
1976-12-02,22.0
1976-12-03,21.0
1976-12-04,18.0
1976-12-05,17.0
1976-12-06,12.0
1976-12-07,16.0
1976-12-08,19.0
1976-12-09,23.0
1976-12-10,24.0
1976-12-11,16.0
1976-12-12,19.0
1976-12-13,18.0
1976-12-14,20.0
1976-12-15,16.0
1976-12-16,14.0
1976-12-17,15.0
1976-12-18,14.0
1976-12-19,14.0
1976-12-20,12.0
1976-12-21,14.0
1976-12-22,16.0
1976-12-23,16.0
1976-12-24,16.0
1976-12-25,18.0
1976-12-26,20.0
1976-12-27,22.0
1976-12-28,19.0
1976-12-29,17.0
1976-12-30,15.0
1976-12-31,13.0
1977-01-01,12.0
1977-01-02,14.0
1977-01-03,17.0
1977-01-04,17.0
1977-01-05,14.0
1977-01-06,15.0
1977-01-07,13.0
1977-01-08,12.0
1977-01-09,12.0
1977-01-10,14.0
1977-01-11,14.0
1977-01-12,14.0
1977-01-13,12.0
1977-01-14,12.0
1977-01-15,13.0
1977-01-16,14.0
1977-01-17,15.0
1977-01-18,14.0
1977-01-19,14.0
1977-01-20,14.0
1977-01-21,14.0
1977-01-22,15.0
1977-01-23,16.0
1977-01-24,14.0
1977-01-25,13.0
1977-01-26,15.0
1977-01-27,18.0
1977-01-28,14.0
1977-01-29,14.0
1977-01-30,15.0
1977-01-31,16.0
1977-02-01,15.0
1977-02-02,13.0
1977-02-03,13.0
1977-02-04,14.0
1977-02-05,14.0
1977-02-06,15.0
1977-02-07,14.0
1977-02-08,15.0
1977-02-09,16.0
1977-02-10,17.0
1977-02-11,16.0
1977-02-12,18.0
1977-02-13,18.0
1977-02-14,17.0
1977-02-15,16.0
1977-02-16,20.0
1977-02-17,18.0
1977-02-18,16.0
1977-02-19,14.0
1977-02-20,12.0
1977-02-21,12.0
1977-02-22,11.0
1977-02-23,9.5
1977-02-24,9.8
1977-02-25,12.0
1977-02-26,11.0
1977-02-27,12.0
1977-02-28,12.0
1977-03-01,15.0
1977-03-02,16.0
1977-03-03,16.0
1977-03-04,17.0
1977-03-05,17.0
1977-03-06,16.0
1977-03-07,16.0
1977-03-08,14.0
1977-03-09,13.0
1977-03-10,17.0
1977-03-11,15.0
1977-03-12,23.0
1977-03-13,25.0
1977-03-14,19.0
1977-03-15,20.0
1977-03-16,22.0
1977-03-17,24.0
1977-03-18,19.0
1977-03-19,16.0
1977-03-20,20.0
1977-03-21,19.0
1977-03-22,18.0
1977-03-23,21.0
1977-03-24,30.0
1977-03-25,26.0
1977-03-26,24.0
1977-03-27,28.0
1977-03-28,30.0
1977-03-29,29.0
1977-03-30,29.0
1977-03-31,28.0
1977-04-01,26.0
1977-04-02,28.0
1977-04-03,32.0
1977-04-04,29.0
1977-04-05,29.0
1977-04-06,30.0
1977-04-07,30.0
1977-04-08,27.0
1977-04-09,24.0
1977-04-10,27.0
1977-04-11,90.0
1977-04-12,120.0
1977-04-13,76.0
1977-04-14,72.0
1977-04-15,301.0
1977-04-16,143.0
1977-04-17,130.0
1977-04-18,148.0
1977-04-19,215.0
1977-04-20,191.0
1977-04-21,166.0
1977-04-22,151.0
1977-04-23,116.0
1977-04-24,152.0
1977-04-25,167.0
1977-04-26,151.0
1977-04-27,131.0
1977-04-28,131.0
1977-04-29,140.0
1977-04-30,148.0
1977-05-01,137.0
1977-05-02,130.0
1977-05-03,115.0
1977-05-04,88.0
1977-05-05,87.0
1977-05-06,82.0
1977-05-07,118.0
1977-05-08,92.0
1977-05-09,65.0
1977-05-10,52.0
1977-05-11,58.0
1977-05-12,69.0
1977-05-13,55.0
1977-05-14,47.0
1977-05-15,42.0
1977-05-16,34.0
1977-05-17,38.0
1977-05-18,39.0
1977-05-19,29.0
1977-05-20,35.0
1977-05-21,40.0
1977-05-22,38.0
1977-05-23,33.0
1977-05-24,25.0
1977-05-25,25.0
1977-05-26,22.0
1977-05-27,19.0
1977-05-28,43.0
1977-05-29,34.0
1977-05-30,23.0
1977-05-31,26.0
1977-06-01,147.0
1977-06-02,50.0
1977-06-03,33.0
1977-06-04,24.0
1977-06-05,19.0
1977-06-06,30.0
1977-06-07,55.0
1977-06-08,23.0
1977-06-09,17.0
1977-06-10,14.0
1977-06-11,15.0
1977-06-12,15.0
1977-06-13,14.0
1977-06-14,70.0
1977-06-15,30.0
1977-06-16,12.0
1977-06-17,11.0
1977-06-18,13.0
1977-06-19,11.0
1977-06-20,10.0
1977-06-21,9.6
1977-06-22,7.8
1977-06-23,9.4
1977-06-24,20.0
1977-06-25,8.9
1977-06-26,7.5
1977-06-27,8.0
1977-06-28,11.0
1977-06-29,12.0
1977-06-30,12.0
1977-07-01,6.9
1977-07-02,6.9
1977-07-03,6.9
1977-07-04,7.0
1977-07-05,43.0
1977-07-06,35.0
1977-07-07,21.0
1977-07-08,18.0
1977-07-09,8.2
1977-07-10,7.2
1977-07-11,6.8
1977-07-12,6.6
1977-07-13,8.0
1977-07-14,7.0
1977-07-15,6.0
1977-07-16,5.5
1977-07-17,5.5
1977-07-18,5.5
1977-07-19,10.0
1977-07-20,55.0
1977-07-21,60.0
1977-07-22,30.0
1977-07-23,30.0
1977-07-24,10.0
1977-07-25,80.0
1977-07-26,50.0
1977-07-27,40.0
1977-07-28,25.0
1977-07-29,30.0
1977-07-30,35.0
1977-07-31,35.0
1977-08-01,30.0
1977-08-02,15.0
1977-08-03,10.0
1977-08-04,9.0
1977-08-05,60.0
1977-08-06,40.0
1977-08-07,55.0
1977-08-08,45.0
1977-08-09,40.0
1977-08-10,60.0
1977-08-11,30.0
1977-08-12,10.0
1977-08-13,10.0
1977-08-14,10.0
1977-08-15,65.0
1977-08-16,50.0
1977-08-17,60.0
1977-08-18,60.0
1977-08-19,65.0
1977-08-20,50.0
1977-08-21,20.0
1977-08-22,25.0
1977-08-23,35.0
1977-08-24,30.0
1977-08-25,25.0
1977-08-26,10.0
1977-08-27,10.0
1977-08-28,10.0
1977-08-29,9.5
1977-08-30,9.0
1977-08-31,8.5
1977-09-01,8.5
1977-09-02,8.5
1977-09-03,8.5
1977-09-04,8.5
1977-09-05,8.0
1977-09-06,7.0
1977-09-07,6.5
1977-09-08,6.0
1977-09-09,6.0
1977-09-10,6.0
1977-09-11,7.0
1977-09-12,30.0
1977-09-13,35.0
1977-09-14,9.4
1977-09-15,8.6
1977-09-16,8.1
1977-09-17,7.6
1977-09-18,6.2
1977-09-19,5.6
1977-09-20,6.2
1977-09-21,6.2
1977-09-22,5.2
1977-09-23,5.3
1977-09-24,5.2
1977-09-25,5.6
1977-09-26,6.0
1977-09-27,6.0
1977-09-28,7.4
1977-09-29,7.4
1977-09-30,7.1
1977-10-01,5.5
1977-10-02,5.6
1977-10-03,5.8
1977-10-04,8.5
1977-10-05,8.8
1977-10-06,9.2
1977-10-07,9.4
1977-10-08,8.7
1977-10-09,8.5
1977-10-10,8.4
1977-10-11,11.0
1977-10-12,15.0
1977-10-13,20.0
1977-10-14,21.0
1977-10-15,11.0
1977-10-16,11.0
1977-10-17,12.0
1977-10-18,10.0
1977-10-19,9.9
1977-10-20,11.0
1977-10-21,11.0
1977-10-22,13.0
1977-10-23,13.0
1977-10-24,11.0
1977-10-25,11.0
1977-10-26,10.0
1977-10-27,7.8
1977-10-28,11.0
1977-10-29,11.0
1977-10-30,11.0
1977-10-31,9.7
1977-11-01,11.0
1977-11-02,9.2
1977-11-03,8.9
1977-11-04,8.4
1977-11-05,8.1
1977-11-06,8.1
1977-11-07,12.0
1977-11-08,35.0
1977-11-09,13.0
1977-11-10,12.0
1977-11-11,13.0
1977-11-12,12.0
1977-11-13,10.0
1977-11-14,9.8
1977-11-15,6.8
1977-11-16,16.0
1977-11-17,14.0
1977-11-18,13.0
1977-11-19,14.0
1977-11-20,13.0
1977-11-21,13.0
1977-11-22,17.0
1977-11-23,15.0
1977-11-24,15.0
1977-11-25,15.0
1977-11-26,19.0
1977-11-27,17.0
1977-11-28,17.0
1977-11-29,16.0
1977-11-30,16.0
1977-12-01,14.0
1977-12-02,17.0
1977-12-03,19.0
1977-12-04,20.0
1977-12-05,17.0
1977-12-06,14.0
1977-12-07,18.0
1977-12-08,16.0
1977-12-09,13.0
1977-12-10,15.0
1977-12-11,18.0
1977-12-12,19.0
1977-12-13,15.0
1977-12-14,16.0
1977-12-15,17.0
1977-12-16,17.0
1977-12-17,16.0
1977-12-18,18.0
1977-12-19,15.0
1977-12-20,12.0
1977-12-21,13.0
1977-12-22,15.0
1977-12-23,16.0
1977-12-24,17.0
1977-12-25,14.0
1977-12-26,14.0
1977-12-27,13.0
1977-12-28,14.0
1977-12-29,13.0
1977-12-30,15.0
1977-12-31,14.0
1978-01-01,13.0
1978-01-02,12.0
1978-01-03,13.0
1978-01-04,15.0
1978-01-05,17.0
1978-01-06,17.0
1978-01-07,18.0
1978-01-08,15.0
1978-01-09,16.0
1978-01-10,15.0
1978-01-11,17.0
1978-01-12,23.0
1978-01-13,34.0
1978-01-14,31.0
1978-01-15,20.0
1978-01-16,21.0
1978-01-17,27.0
1978-01-18,26.0
1978-01-19,20.0
1978-01-20,19.0
1978-01-21,21.0
1978-01-22,24.0
1978-01-23,24.0
1978-01-24,31.0
1978-01-25,32.0
1978-01-26,36.0
1978-01-27,36.0
1978-01-28,30.0
1978-01-29,33.0
1978-01-30,31.0
1978-01-31,31.0
1978-02-01,30.0
1978-02-02,32.0
1978-02-03,35.0
1978-02-04,42.0
1978-02-05,38.0
1978-02-06,30.0
1978-02-07,25.0
1978-02-08,20.0
1978-02-09,16.0
1978-02-10,15.0
1978-02-11,18.0
1978-02-12,19.0
1978-02-13,20.0
1978-02-14,21.0
1978-02-15,21.0
1978-02-16,21.0
1978-02-17,21.0
1978-02-18,21.0
1978-02-19,30.0
1978-02-20,37.0
1978-02-21,23.0
1978-02-22,19.0
1978-02-23,16.0
1978-02-24,14.0
1978-02-25,13.0
1978-02-26,11.0
1978-02-27,16.0
1978-02-28,17.0
1978-03-01,14.0
1978-03-02,13.0
1978-03-03,21.0
1978-03-04,19.0
1978-03-05,16.0
1978-03-06,16.0
1978-03-07,12.0
1978-03-08,9.5
1978-03-09,9.6
1978-03-10,11.0
1978-03-11,11.0
1978-03-12,10.0
1978-03-13,11.0
1978-03-14,11.0
1978-03-15,11.0
1978-03-16,11.0
1978-03-17,14.0
1978-03-18,14.0
1978-03-19,14.0
1978-03-20,15.0
1978-03-21,13.0
1978-03-22,14.0
1978-03-23,13.0
1978-03-24,12.0
1978-03-25,11.0
1978-03-26,12.0
1978-03-27,14.0
1978-03-28,14.0
1978-03-29,14.0
1978-03-30,14.0
1978-03-31,15.0
1978-04-01,15.0
1978-04-02,12.0
1978-04-03,11.0
1978-04-04,8.3
1978-04-05,9.0
1978-04-06,8.3
1978-04-07,9.6
1978-04-08,11.0
1978-04-09,18.0
1978-04-10,12.0
1978-04-11,10.0
1978-04-12,12.0
1978-04-13,11.0
1978-04-14,11.0
1978-04-15,12.0
1978-04-16,13.0
1978-04-17,10.0
1978-04-18,10.0
1978-04-19,10.0
1978-04-20,10.0
1978-04-21,10.0
1978-04-22,8.9
1978-04-23,9.7
1978-04-24,14.0
1978-04-25,15.0
1978-04-26,18.0
1978-04-27,20.0
1978-04-28,14.0
1978-04-29,15.0
1978-04-30,96.0
1978-05-01,20.0
1978-05-02,20.0
1978-05-03,42.0
1978-05-04,73.0
1978-05-05,75.0
1978-05-06,79.0
1978-05-07,66.0
1978-05-08,79.0
1978-05-09,75.0
1978-05-10,66.0
1978-05-11,61.0
1978-05-12,72.0
1978-05-13,70.0
1978-05-14,58.0
1978-05-15,90.0
1978-05-16,77.0
1978-05-17,74.0
1978-05-18,59.0
1978-05-19,62.0
1978-05-20,94.0
1978-05-21,139.0
1978-05-22,87.0
1978-05-23,66.0
1978-05-24,50.0
1978-05-25,40.0
1978-05-26,35.0
1978-05-27,40.0
1978-05-28,40.0
1978-05-29,35.0
1978-05-30,30.0
1978-05-31,26.0
1978-06-01,26.0
1978-06-02,21.0
1978-06-03,17.0
1978-06-04,40.0
1978-06-05,51.0
1978-06-06,27.0
1978-06-07,22.0
1978-06-08,24.0
1978-06-09,24.0
1978-06-10,20.0
1978-06-11,20.0
1978-06-12,18.0
1978-06-13,16.0
1978-06-14,27.0
1978-06-15,34.0
1978-06-16,22.0
1978-06-17,26.0
1978-06-18,12.0
1978-06-19,12.0
1978-06-20,9.8
1978-06-21,11.0
1978-06-22,19.0
1978-06-23,13.0
1978-06-24,14.0
1978-06-25,16.0
1978-06-26,12.0
1978-06-27,11.0
1978-06-28,10.0
1978-06-29,9.1
1978-06-30,14.0
1978-07-01,11.0
1978-07-02,7.9
1978-07-03,8.0
1978-07-04,8.0
1978-07-05,7.9
1978-07-06,11.0
1978-07-07,10.0
1978-07-08,8.2
1978-07-09,322.0
1978-07-10,179.0
1978-07-11,20.0
1978-07-12,9.0
1978-07-13,36.0
1978-07-14,29.0
1978-07-15,23.0
1978-07-16,10.0
1978-07-17,7.4
1978-07-18,7.4
1978-07-19,7.4
1978-07-20,10.0
1978-07-21,9.0
1978-07-22,29.0
1978-07-23,17.0
1978-07-24,10.0
1978-07-25,8.1
1978-07-26,6.6
1978-07-27,6.6
1978-07-28,5.8
1978-07-29,470.0
1978-07-30,133.0
1978-07-31,174.0
1978-08-01,52.0
1978-08-02,100.0
1978-08-03,30.0
1978-08-04,15.0
1978-08-05,10.0
1978-08-06,7.0
1978-08-07,5.0
1978-08-08,3.9
1978-08-09,2.3
1978-08-10,2.6
1978-08-11,5.8
1978-08-12,13.0
1978-08-13,13.0
1978-08-14,11.0
1978-08-15,2.9
1978-08-16,2.6
1978-08-17,6.7
1978-08-18,3.4
1978-08-19,2.0
1978-08-20,2.6
1978-08-21,4.4
1978-08-22,6.5
1978-08-23,3.2
1978-08-24,2.9
1978-08-25,4.5
1978-08-26,7.9
1978-08-27,4.4
1978-08-28,168.0
1978-08-29,157.0
1978-08-30,21.0
1978-08-31,15.0
1978-09-01,10.0
1978-09-02,9.0
1978-09-03,7.7
1978-09-04,7.2
1978-09-05,6.4
1978-09-06,4.8
1978-09-07,5.6
1978-09-08,6.1
1978-09-09,7.2
1978-09-10,7.0
1978-09-11,7.8
1978-09-12,3.5
1978-09-13,2.3
1978-09-14,3.7
1978-09-15,7.0
1978-09-16,8.9
1978-09-17,5.8
1978-09-18,6.5
1978-09-19,4.2
1978-09-20,3.7
1978-09-21,2.3
1978-09-22,7.4
1978-09-23,15.0
1978-09-24,14.0
1978-09-25,15.0
1978-09-26,16.0
1978-09-27,15.0
1978-09-28,13.0
1978-09-29,9.8
1978-09-30,7.4
1978-10-01,6.3
1978-10-02,5.2
1978-10-03,4.7
1978-10-04,4.7
1978-10-05,4.2
1978-10-06,4.2
1978-10-07,3.7
1978-10-08,4.7
1978-10-09,7.4
1978-10-10,9.0
1978-10-11,11.0
1978-10-12,13.0
1978-10-13,5.8
1978-10-14,4.7
1978-10-15,7.4
1978-10-16,12.0
1978-10-17,14.0
1978-10-18,11.0
1978-10-19,10.0
1978-10-20,9.0
1978-10-21,38.0
1978-10-22,158.0
1978-10-23,26.0
1978-10-24,40.0
1978-10-25,30.0
1978-10-26,9.0
1978-10-27,5.2
1978-10-28,9.0
1978-10-29,19.0
1978-10-30,17.0
1978-10-31,11.0
1978-11-01,12.0
1978-11-02,16.0
1978-11-03,14.0
1978-11-04,13.0
1978-11-05,12.0
1978-11-06,12.0
1978-11-07,13.0
1978-11-08,9.3
1978-11-09,9.0
1978-11-10,7.7
1978-11-11,13.0
1978-11-12,18.0
1978-11-13,18.0
1978-11-14,11.0
1978-11-15,12.0
1978-11-16,9.0
1978-11-17,8.2
1978-11-18,7.4
1978-11-19,9.1
1978-11-20,9.0
1978-11-21,7.5
1978-11-22,7.5
1978-11-23,8.1
1978-11-24,8.1
1978-11-25,21.0
1978-11-26,11.0
1978-11-27,9.0
1978-11-28,12.0
1978-11-29,13.0
1978-11-30,13.0
1978-12-01,15.0
1978-12-02,8.5
1978-12-03,10.0
1978-12-04,21.0
1978-12-05,16.0
1978-12-06,8.0
1978-12-07,7.0
1978-12-08,7.0
1978-12-09,7.0
1978-12-10,7.0
1978-12-11,8.0
1978-12-12,9.5
1978-12-13,13.0
1978-12-14,27.0
1978-12-15,23.0
1978-12-16,34.0
1978-12-17,19.0
1978-12-18,18.0
1978-12-19,22.0
1978-12-20,9.1
1978-12-21,4.4
1978-12-22,6.8
1978-12-23,8.1
1978-12-24,10.0
1978-12-25,8.0
1978-12-26,7.0
1978-12-27,6.5
1978-12-28,7.0
1978-12-29,8.0
1978-12-30,6.0
1978-12-31,5.0
1979-01-01,4.5
1979-01-02,4.0
1979-01-03,3.5
1979-01-04,3.5
1979-01-05,3.5
1979-01-06,3.2
1979-01-07,3.2
1979-01-08,3.2
1979-01-09,3.2
1979-01-10,4.6
1979-01-11,4.7
1979-01-12,4.2
1979-01-13,20.0
1979-01-14,15.0
1979-01-15,10.0
1979-01-16,5.8
1979-01-17,5.6
1979-01-18,3.6
1979-01-19,2.9
1979-01-20,3.2
1979-01-21,5.0
1979-01-22,4.2
1979-01-23,6.0
1979-01-24,5.0
1979-01-25,4.5
1979-01-26,4.5
1979-01-27,4.0
1979-01-28,3.5
1979-01-29,3.5
1979-01-30,3.5
1979-01-31,3.5
1979-02-01,4.0
1979-02-02,5.0
1979-02-03,5.5
1979-02-04,5.8
1979-02-05,7.4
1979-02-06,6.6
1979-02-07,15.0
1979-02-08,5.8
1979-02-09,13.0
1979-02-10,5.2
1979-02-11,5.2
1979-02-12,6.6
1979-02-13,11.0
1979-02-14,7.4
1979-02-15,3.2
1979-02-16,2.6
1979-02-17,3.0
1979-02-18,3.5
1979-02-19,4.0
1979-02-20,4.5
1979-02-21,4.7
1979-02-22,4.2
1979-02-23,4.2
1979-02-24,5.8
1979-02-25,5.8
1979-02-26,11.0
1979-02-27,8.2
1979-02-28,7.4
1979-03-01,8.5
1979-03-02,4.4
1979-03-03,5.4
1979-03-04,5.8
1979-03-05,9.0
1979-03-06,6.8
1979-03-07,6.7
1979-03-08,9.4
1979-03-09,11.0
1979-03-10,8.6
1979-03-11,7.2
1979-03-12,7.5
1979-03-13,6.4
1979-03-14,7.0
1979-03-15,6.6
1979-03-16,7.0
1979-03-17,5.1
1979-03-18,12.0
1979-03-19,27.0
1979-03-20,57.0
1979-03-21,104.0
1979-03-22,52.0
1979-03-23,66.0
1979-03-24,48.0
1979-03-25,29.0
1979-03-26,19.0
1979-03-27,20.0
1979-03-28,24.0
1979-03-29,23.0
1979-03-30,17.0
1979-03-31,17.0
1979-04-01,16.0
1979-04-02,20.0
1979-04-03,60.0
1979-04-04,128.0
1979-04-05,63.0
1979-04-06,26.0
1979-04-07,32.0
1979-04-08,38.0
1979-04-09,44.0
1979-04-10,107.0
1979-04-11,72.0
1979-04-12,23.0
1979-04-13,15.0
1979-04-14,21.0
1979-04-15,35.0
1979-04-16,42.0
1979-04-17,74.0
1979-04-18,92.0
1979-04-19,108.0
1979-04-20,84.0
1979-04-21,95.0
1979-04-22,84.0
1979-04-23,88.0
1979-04-24,113.0
1979-04-25,100.0
1979-04-26,91.0
1979-04-27,77.0
1979-04-28,77.0
1979-04-29,62.0
1979-04-30,61.0
1979-05-01,53.0
1979-05-02,88.0
1979-05-03,79.0
1979-05-04,52.0
1979-05-05,54.0
1979-05-06,48.0
1979-05-07,51.0
1979-05-08,54.0
1979-05-09,54.0
1979-05-10,43.0
1979-05-11,36.0
1979-05-12,30.0
1979-05-13,24.0
1979-05-14,22.0
1979-05-15,21.0
1979-05-16,27.0
1979-05-17,33.0
1979-05-18,29.0
1979-05-19,64.0
1979-05-20,337.0
1979-05-21,88.0
1979-05-22,95.0
1979-05-23,50.0
1979-05-24,60.0
1979-05-25,500.0
1979-05-26,202.0
1979-05-27,115.0
1979-05-28,73.0
1979-05-29,113.0
1979-05-30,195.0
1979-05-31,137.0
1979-06-01,115.0
1979-06-02,122.0
1979-06-03,122.0
1979-06-04,94.0
1979-06-05,71.0
1979-06-06,71.0
1979-06-07,95.0
1979-06-08,200.0
1979-06-09,168.0
1979-06-10,124.0
1979-06-11,82.0
1979-06-12,81.0
1979-06-13,88.0
1979-06-14,65.0
1979-06-15,52.0
1979-06-16,45.0
1979-06-17,42.0
1979-06-18,40.0
1979-06-19,39.0
1979-06-20,38.0
1979-06-21,37.0
1979-06-22,36.0
1979-06-23,50.0
1979-06-24,110.0
1979-06-25,80.0
1979-06-26,60.0
1979-06-27,50.0
1979-06-28,45.0
1979-06-29,40.0
1979-06-30,70.0
1979-07-01,60.0
1979-07-02,90.0
1979-07-03,84.0
1979-07-04,86.0
1979-07-05,60.0
1979-07-06,103.0
1979-07-07,63.0
1979-07-08,49.0
1979-07-09,33.0
1979-07-10,26.0
1979-07-11,22.0
1979-07-12,16.0
1979-07-13,16.0
1979-07-14,9.5
1979-07-15,23.0
1979-07-16,40.0
1979-07-17,100.0
1979-07-18,132.0
1979-07-19,81.0
1979-07-20,64.0
1979-07-21,47.0
1979-07-22,51.0
1979-07-23,43.0
1979-07-24,82.0
1979-07-25,51.0
1979-07-26,55.0
1979-07-27,91.0
1979-07-28,37.0
1979-07-29,26.0
1979-07-30,102.0
1979-07-31,29.0
1979-08-01,58.0
1979-08-02,40.0
1979-08-03,33.0
1979-08-04,25.0
1979-08-05,17.0
1979-08-06,19.0
1979-08-07,21.0
1979-08-08,27.0
1979-08-09,14.0
1979-08-10,52.0
1979-08-11,74.0
1979-08-12,40.0
1979-08-13,11.0
1979-08-14,230.0
1979-08-15,158.0
1979-08-16,113.0
1979-08-17,113.0
1979-08-18,81.0
1979-08-19,92.0
1979-08-20,78.0
1979-08-21,45.0
1979-08-22,28.0
1979-08-23,23.0
1979-08-24,26.0
1979-08-25,45.0
1979-08-26,70.0
1979-08-27,27.0
1979-08-28,17.0
1979-08-29,21.0
1979-08-30,8.2
1979-08-31,11.0
1979-09-01,21.0
1979-09-02,23.0
1979-09-03,27.0
1979-09-04,10.0
1979-09-05,6.6
1979-09-06,21.0
1979-09-07,17.0
1979-09-08,13.0
1979-09-09,14.0
1979-09-10,15.0
1979-09-11,48.0
1979-09-12,35.0
1979-09-13,27.0
1979-09-14,89.0
1979-09-15,27.0
1979-09-16,18.0
1979-09-17,13.0
1979-09-18,11.0
1979-09-19,10.0
1979-09-20,8.2
1979-09-21,10.0
1979-09-22,10.0
1979-09-23,6.6
1979-09-24,6.6
1979-09-25,10.0
1979-09-26,10.0
1979-09-27,10.0
1979-09-28,10.0
1979-09-29,10.0
1979-09-30,10.0
1979-10-01,10.0
1979-10-02,10.0
1979-10-03,14.0
1979-10-04,17.0
1979-10-05,17.0
1979-10-06,17.0
1979-10-07,16.0
1979-10-08,16.0
1979-10-09,18.0
1979-10-10,18.0
1979-10-11,16.0
1979-10-12,17.0
1979-10-13,17.0
1979-10-14,18.0
1979-10-15,15.0
1979-10-16,17.0
1979-10-17,17.0
1979-10-18,15.0
1979-10-19,17.0
1979-10-20,15.0
1979-10-21,45.0
1979-10-22,30.0
1979-10-23,32.0
1979-10-24,34.0
1979-10-25,33.0
1979-10-26,31.0
1979-10-27,19.0
1979-10-28,23.0
1979-10-29,26.0
1979-10-30,27.0
1979-10-31,32.0
1979-11-01,29.0
1979-11-02,22.0
1979-11-03,21.0
1979-11-04,21.0
1979-11-05,20.0
1979-11-06,22.0
1979-11-07,25.0
1979-11-08,28.0
1979-11-09,27.0
1979-11-10,18.0
1979-11-11,18.0
1979-11-12,23.0
1979-11-13,21.0
1979-11-14,22.0
1979-11-15,24.0
1979-11-16,25.0
1979-11-17,25.0
1979-11-18,26.0
1979-11-19,23.0
1979-11-20,27.0
1979-11-21,14.0
1979-11-22,14.0
1979-11-23,18.0
1979-11-24,20.0
1979-11-25,23.0
1979-11-26,23.0
1979-11-27,18.0
1979-11-28,14.0
1979-11-29,14.0
1979-11-30,17.0
1979-12-01,20.0
1979-12-02,23.0
1979-12-03,25.0
1979-12-04,25.0
1979-12-05,23.0
1979-12-06,20.0
1979-12-07,19.0
1979-12-08,18.0
1979-12-09,17.0
1979-12-10,17.0
1979-12-11,16.0
1979-12-12,17.0
1979-12-13,16.0
1979-12-14,12.0
1979-12-15,20.0
1979-12-16,14.0
1979-12-17,11.0
1979-12-18,16.0
1979-12-19,13.0
1979-12-20,19.0
1979-12-21,18.0
1979-12-22,16.0
1979-12-23,16.0
1979-12-24,7.4
1979-12-25,21.0
1979-12-26,14.0
1979-12-27,16.0
1979-12-28,17.0
1979-12-29,11.0
1979-12-30,6.6
1979-12-31,11.0
1980-01-01,23.0
1980-01-02,21.0
1980-01-03,14.0
1980-01-04,14.0
1980-01-05,19.0
1980-01-06,23.0
1980-01-07,13.0
1980-01-08,9.0
1980-01-09,17.0
1980-01-10,29.0
1980-01-11,11.0
1980-01-12,27.0
1980-01-13,64.0
1980-01-14,44.0
1980-01-15,44.0
1980-01-16,28.0
1980-01-17,24.0
1980-01-18,23.0
1980-01-19,22.0
1980-01-20,21.0
1980-01-21,22.0
1980-01-22,18.0
1980-01-23,10.0
1980-01-24,20.0
1980-01-25,10.0
1980-01-26,8.0
1980-01-27,7.0
1980-01-28,7.0
1980-01-29,7.0
1980-01-30,8.0
1980-01-31,9.0
1980-02-01,10.0
1980-02-02,15.0
1980-02-03,20.0
1980-02-04,22.0
1980-02-05,14.0
1980-02-06,18.0
1980-02-07,24.0
1980-02-08,24.0
1980-02-09,30.0
1980-02-10,34.0
1980-02-11,13.0
1980-02-12,25.0
1980-02-13,30.0
1980-02-14,20.0
1980-02-15,22.0
1980-02-16,30.0
1980-02-17,34.0
1980-02-18,49.0
1980-02-19,56.0
1980-02-20,45.0
1980-02-21,34.0
1980-02-22,38.0
1980-02-23,27.0
1980-02-24,22.0
1980-02-25,24.0
1980-02-26,27.0
1980-02-27,25.0
1980-02-28,27.0
1980-02-29,27.0
1980-03-01,25.0
1980-03-02,32.0
1980-03-03,23.0
1980-03-04,23.0
1980-03-05,22.0
1980-03-06,23.0
1980-03-07,23.0
1980-03-08,25.0
1980-03-09,21.0
1980-03-10,23.0
1980-03-11,24.0
1980-03-12,29.0
1980-03-13,18.0
1980-03-14,16.0
1980-03-15,16.0
1980-03-16,16.0
1980-03-17,15.0
1980-03-18,14.0
1980-03-19,23.0
1980-03-20,19.0
1980-03-21,15.0
1980-03-22,16.0
1980-03-23,52.0
1980-03-24,23.0
1980-03-25,17.0